,

(GMT )
Manston

Weather History for EGMH - November, 2013

Change the Weather History Date:

Sunday, November 24, 2013

  Actual Average Record
Temperature  
Mean Temperature 44 °F -  
Max Temperature 46 °F - - ()
Min Temperature 42 °F - - ()
Degree Days  
Heating Degree Days 21    
Moisture  
Dew Point 41 °F    
Average Humidity 86    
Maximum Humidity 100    
Minimum Humidity 62    
Precipitation  
Precipitation 0.00 in - - ()
Sea Level Pressure  
Sea Level Pressure 30.37 in    
Wind  
Wind Speed 15 mph ()    
Max Wind Speed 24 mph    
Max Gust Speed -    
Visibility 7.8 miles    
Events Rain    
T = Trace of Precipitation, MM = Missing Value Source: Averaged Metar Reports

Daily Weather History Graph

Daily Weather History Graph

Search for Another Location

Airport or City:

Trip Planner

Search our weather history database for the weather conditions in past years. The results will help you decide how hot, cold, wet, or windy it might be!

Date:

Astronomy

Nov. 24, 2013 Rise Set
Actual Time 7:26 AM GMT 3:55 PM GMT
Civil Twilight 6:48 AM GMT 4:33 PM GMT
Nautical Twilight 6:07 AM GMT 5:14 PM GMT
Astronomical Twilight 5:27 AM GMT 5:54 PM GMT
Moon 10:27 PM GMT (11/24) 11:48 AM GMT (11/24)
Length of Visible Light 9h 44m
Length of Day
8h 28m
Waning Gibbous, 62% of the Moon is Illuminated
Nov 24
Waning Gibbous
Nov 25
Last Quarter
Dec 3
New
Dec 9
First Quarter
Dec 17
Full

Hourly Weather History & Observations

Time (GMT) Temp. Windchill Dew Point Humidity Pressure Visibility Wind Dir Wind Speed Gust Speed Precip Events Conditions
12:00 AM 44 °F - 43 °F 94% 30.27 in 19 mi North 12.7 mph - -   Partly Cloudy
3:00 AM 45 °F - 44 °F 92% 30.28 in 19 mi North 17.3 mph - -   Overcast
5:50 AM 42.8 °F 35.4 °F 42.8 °F 100% 30.27 in 6.2 mi NNW 15.0 mph - N/A   Scattered Clouds
6:00 AM 43 °F - 43 °F 98% 30.31 in 9 mi NNW 16.1 mph - -  
6:20 AM 44.6 °F 37.2 °F 42.8 °F 93% 30.30 in 6.2 mi NNW 17.3 mph - N/A   Mostly Cloudy
6:50 AM 44.6 °F 38.1 °F 42.8 °F 93% 30.30 in 6.2 mi NNW 13.8 mph - N/A   Mostly Cloudy
7:20 AM 44.6 °F 37.8 °F 42.8 °F 93% 30.30 in 6.2 mi NNW 15.0 mph - N/A   Mostly Cloudy
7:50 AM 44.6 °F 37.4 °F 42.8 °F 93% 30.30 in 6.2 mi NNW 16.1 mph - N/A   Mostly Cloudy
8:20 AM 44.6 °F 37.8 °F 42.8 °F 93% 30.33 in 6.2 mi NNW 15.0 mph - N/A   Mostly Cloudy
8:50 AM 44.6 °F 38.1 °F 42.8 °F 93% 30.33 in 6.2 mi NNW 13.8 mph - N/A   Mostly Cloudy
9:00 AM 44 °F - 44 °F 97% 30.35 in 10 mi NNW 13.8 mph - -   Mostly Cloudy
9:20 AM 44.6 °F 38.1 °F 42.8 °F 93% 30.33 in 6.2 mi North 13.8 mph - N/A   Mostly Cloudy
9:50 AM 44.6 °F 38.4 °F 44.6 °F 100% 30.36 in 6.2 mi NNW 12.7 mph - N/A   Mostly Cloudy
10:20 AM 46.4 °F 40.4 °F 44.6 °F 93% 30.36 in 6.2 mi NNW 13.8 mph - N/A   Scattered Clouds
10:50 AM 46.4 °F 39.8 °F 42.8 °F 87% 30.36 in 6.2 mi NNW 16.1 mph - N/A   Scattered Clouds
11:20 AM 46.4 °F 39.2 °F 44.6 °F 93% 30.36 in 3.7 mi NNW 18.4 mph - N/A   Drizzle
11:50 AM 46.4 °F 40.1 °F 44.6 °F 93% 30.36 in 5.6 mi NNW 15.0 mph - N/A   Mostly Cloudy
12:00 PM 46 °F - 44 °F 92% 30.37 in 13 mi NNW 13.8 mph - -   Scattered Clouds
12:20 PM 46.4 °F 39.8 °F 44.6 °F 93% 30.36 in 6.2 mi North 16.1 mph - N/A   Light Drizzle
12:50 PM 46.4 °F 39.5 °F 44.6 °F 93% 30.36 in 4.3 mi North 17.3 mph - N/A Rain Light Rain Showers
1:20 PM 46.4 °F 39.0 °F 42.8 °F 87% 30.36 in 3.7 mi North 19.6 mph - N/A   Light Drizzle
1:50 PM 46.4 °F 38.5 °F 41.0 °F 81% 30.36 in 6.2 mi North 21.9 mph - N/A   Mostly Cloudy
2:20 PM 46.4 °F 38.1 °F 41.0 °F 81% 30.36 in 6.2 mi North 24.2 mph - N/A   Mostly Cloudy
2:50 PM 46.4 °F 38.3 °F 37.4 °F 71% 30.39 in 6.2 mi North 23.0 mph - N/A   Mostly Cloudy
3:00 PM 46 °F - 37 °F 62% 30.40 in 11 mi NNE 21.9 mph - -   Scattered Clouds
3:20 PM 44.6 °F 36.1 °F 37.4 °F 76% 30.39 in - North 21.9 mph - N/A   Mostly Cloudy
3:50 PM 44.6 °F 36.4 °F 39.2 °F 81% 30.39 in - North 20.7 mph - N/A   Scattered Clouds
4:20 PM 44.6 °F 35.7 °F 35.6 °F 71% 30.42 in 6.2 mi North 24.2 mph - N/A   Mostly Cloudy
4:50 PM 44.6 °F 37.2 °F 39.2 °F 81% 30.42 in 6.2 mi North 17.3 mph - N/A   Mostly Cloudy
5:20 PM 44.6 °F 35.9 °F 37.4 °F 76% 30.42 in 6.2 mi North 23.0 mph - N/A   Mostly Cloudy
5:50 PM 44.6 °F 36.6 °F 37.4 °F 76% 30.42 in 6.2 mi North 19.6 mph - N/A   Mostly Cloudy
6:00 PM 44 °F - 38 °F 73% 30.46 in 19 mi North 19.6 mph - -   Scattered Clouds
6:20 PM 44.6 °F 37.2 °F 37.4 °F 76% 30.45 in 6.2 mi North 17.3 mph - N/A   Mostly Cloudy
6:50 PM 42.8 °F 34.8 °F 39.2 °F 87% 30.45 in 6.2 mi North 17.3 mph - N/A   Mostly Cloudy
7:20 PM 42.8 °F 34.8 °F 37.4 °F 81% 30.45 in 6.2 mi North 17.3 mph - N/A   Mostly Cloudy
7:50 PM 44.6 °F 36.9 °F 37.4 °F 76% 30.45 in 6.2 mi North 18.4 mph - N/A   Mostly Cloudy
8:20 PM 44.6 °F 36.6 °F 37.4 °F 76% 30.48 in 6.2 mi North 19.6 mph - N/A   Mostly Cloudy
9:00 PM 43 °F - 38 °F 75% 30.50 in 13 mi North 19.6 mph - - Rain Rain